星链-37076(STARLINK-37076)

导读

STARLINK-37076(NORAD编号68173)是美国SpaceX公司星链(Starlink)互联网星座中的一颗低轨通信卫星,隶属于SpaceX大规模卫星互联网组网计划。星链项目通过在近地轨道部署大量卫星,构建全球覆盖的卫星通信网络,该星部署于约550公里近地轨道,具备低时延通信优势,典型时延可压缩至25毫秒左右,可支持宽带互联网接入服务。作为星链星座的组成部分,它采用相控阵天线技术实现高带宽信号传输,配备氩气推进器用于姿态控制与轨道机动,依托星链整体组网架构,为全球偏远地区、海上移动场景等提供互联网接入支持,是SpaceX构建全球低轨卫星通信系统的单元之一。

基本信息
目录编号:
68173
目录名称:
STARLINK-37076
国际标识:
2026-050G
轨道中心:
EARTH
卫星名称:
星链-37076
卫星全名:
星链-37076(STARLINK-37076)
卫星状态:
在轨 (已飞行175 天)
发射日期:
2026-03-14 UTC
国别 :
美国 (US)
星等 :
--
轨道信息
数据来源 国际轨道数据
星历时间: 2026-09-05T11:02:34+0800
9小时前
查看轨道信息
半长轴: 6840.829km
偏心率: 0.0001462
轨道倾角: 53.160°
近地点辐角 53.672°
升交点赤经 149.888°
平近点角 306.442°
近地点: 461.691km
远地点: 463.693km
周期: 93.848分钟
每日圈数: 15.344041
详细信息
固有亮度:
5
最大亮度:
2.5
卫星平台:
Starlink V1.0
覆盖范围:
全球
运营商:
太空探索技术公司
运营商所在国:
美国
制造商(研发单位):
太空探索技术公司
制造商所在国:
美国
使用方式:
暂无
卫星简介
Starlink 计划是 SpaceX 推出的全球卫星互联网项目,通过发射低轨道卫星,为全球尤其是偏远地区提供高速、低延迟的互联网服务。自 2019 年起,Starlink 已部署数千颗卫星,旨在缩小全球数字鸿沟,推动互联网普及。该项目还为军事、航空等行业提供通信支持,带来广泛经济效益。
2D轨道图
3D轨道图
轨道高度分析图
轨道倾角分析图
轨道综合分析图
查看轨道综合分析图
交会数据列表
事件ID 空间交会对象 最接近时刻(TCA) 交会距离 交会风险概率(CRP) 交会风险指数(CRI) 操作
CDM_260906-154103-686906-817321
2026-09-06T
15:41:06+0000
0.796 km
远距离
4.039049E-5 中风险 0.67
CDM_260906-090404-579406-817321
2026-09-06T
09:04:56+0000
2.487 km
极远距离
1.647513E-6 低风险 0.39
CDM_260903-022205-892706-817322
OBJECT L (58927)
2026-09-03T
02:22:47+0000
2.853 km
极远距离
1.405601E-6 低风险 0.38
CDM_260906-224705-720306-817321
2026-09-06T
22:47:14+0000
2.980 km
极远距离
1.348487E-6 低风险 0.38